contact:dominique.lefevre@mio.osupytheas.fr, maurice.libes@osupytheas.fr, didier.mallarino@osupytheas.fr
Project:EMSO http://www.emso-fr.org/EMSO-France
Depth: 2436.0 m
Title:EMSO Ligure Ouest : Data MII capteur CSTAR
DateTime,Latitude,Longitude,Instrument_Serial,Reference_Counts,Signal_Counts,Corrected_Signal_raw_counts,Calculated_Beam_c_inverse_meters,Internal_thermistor_counts
DateTime,Latitude,Longitude,Instrument_Serial,Reference_Counts,Signal_Counts,Corrected_Signal_raw_counts,Calculated_Beam_c_inverse_meters,Internal_thermistor_counts
2019-10-24T00:01:16,42.805,6.029,CST-1368DR,7531,10547,15328,0.074,551
2019-10-24T00:04:18,42.805,6.029,CST-1368DR,7531,10549,15331,0.074,551
2019-10-24T00:07:19,42.805,6.029,CST-1368DR,7531,10548,15329,0.074,551
2019-10-24T00:10:21,42.805,6.029,CST-1368DR,7531,10547,15328,0.074,551
2019-10-24T00:13:23,42.805,6.029,CST-1368DR,7531,10548,15329,0.074,551
2019-10-24T00:16:25,42.805,6.029,CST-1368DR,7530,10548,15331,0.074,551
2019-10-24T00:19:26,42.805,6.029,CST-1368DR,7531,10548,15329,0.074,551
2019-10-24T00:22:28,42.805,6.029,CST-1368DR,7531,10548,15330,0.074,551
2019-10-24T00:25:30,42.805,6.029,CST-1368DR,7531,10548,15329,0.074,551
2019-10-24T00:28:31,42.805,6.029,CST-1368DR,7530,10546,15328,0.074,551
2019-10-24T00:31:33,42.805,6.029,CST-1368DR,7530,10548,15331,0.074,551
2019-10-24T00:34:34,42.805,6.029,CST-1368DR,7530,10547,15329,0.074,551
2019-10-24T00:37:36,42.805,6.029,CST-1368DR,7530,10548,15332,0.073,551
2019-10-24T00:40:38,42.805,6.029,CST-1368DR,7531,10548,15330,0.074,551
2019-10-24T00:43:39,42.805,6.029,CST-1368DR,7530,10549,15332,0.073,551
2019-10-24T00:46:41,42.805,6.029,CST-1368DR,7530,10548,15331,0.074,551
2019-10-24T00:49:43,42.805,6.029,CST-1368DR,7531,10548,15329,0.074,551
2019-10-24T00:52:44,42.805,6.029,CST-1368DR,7530,10545,15327,0.075,551
2019-10-24T00:55:46,42.805,6.029,CST-1368DR,7530,10549,15333,0.073,551
2019-10-24T00:58:48,42.805,6.029,CST-1368DR,7530,10547,15329,0.074,551
2019-10-24T01:01:49,42.805,6.029,CST-1368DR,7530,10547,15330,0.074,551
2019-10-24T01:04:51,42.805,6.029,CST-1368DR,7530,10549,15332,0.073,551
2019-10-24T01:07:53,42.805,6.029,CST-1368DR,7530,10548,15331,0.074,551
2019-10-24T01:10:54,42.805,6.029,CST-1368DR,7530,10548,15332,0.073,551
2019-10-24T01:13:56,42.805,6.029,CST-1368DR,7530,10548,15331,0.074,551
2019-10-24T01:16:58,42.805,6.029,CST-1368DR,7530,10548,15332,0.073,551
2019-10-24T01:19:59,42.805,6.029,CST-1368DR,7530,10549,15332,0.073,551
2019-10-24T01:23:01,42.805,6.029,CST-1368DR,7530,10547,15330,0.074,551
2019-10-24T01:26:03,42.805,6.029,CST-1368DR,7530,10548,15332,0.073,551
2019-10-24T01:29:04,42.805,6.029,CST-1368DR,7530,10545,15327,0.075,551
2019-10-24T01:32:06,42.805,6.029,CST-1368DR,7530,10548,15331,0.074,551
2019-10-24T01:35:08,42.805,6.029,CST-1368DR,7530,10545,15326,0.075,551
2019-10-24T01:38:09,42.805,6.029,CST-1368DR,7530,10546,15328,0.074,551
2019-10-24T01:41:11,42.805,6.029,CST-1368DR,7530,10548,15331,0.074,551
2019-10-24T01:44:12,42.805,6.029,CST-1368DR,7530,10547,15330,0.074,551
2019-10-24T01:47:14,42.805,6.029,CST-1368DR,7530,10546,15328,0.074,550
2019-10-24T01:50:16,42.805,6.029,CST-1368DR,7530,10547,15330,0.074,551
2019-10-24T01:53:17,42.805,6.029,CST-1368DR,7530,10547,15330,0.074,551
2019-10-24T01:56:19,42.805,6.029,CST-1368DR,7530,10548,15331,0.074,551
2019-10-24T01:59:21,42.805,6.029,CST-1368DR,7530,10547,15329,0.074,551
2019-10-24T02:02:22,42.805,6.029,CST-1368DR,7530,10547,15330,0.074,551
2019-10-24T02:05:24,42.805,6.029,CST-1368DR,7530,10547,15329,0.074,551
2019-10-24T02:08:26,42.805,6.029,CST-1368DR,7530,10545,15327,0.075,551
2019-10-24T02:11:27,42.805,6.029,CST-1368DR,7530,10545,15326,0.075,551
2019-10-24T02:14:29,42.805,6.029,CST-1368DR,7530,10547,15330,0.074,551
2019-10-24T02:17:31,42.805,6.029,CST-1368DR,7530,10543,15324,0.076,551
2019-10-24T02:20:32,42.805,6.029,CST-1368DR,7530,10544,15325,0.075,551
2019-10-24T02:23:34,42.805,6.029,CST-1368DR,7530,10547,15330,0.074,551
2019-10-24T02:26:35,42.805,6.029,CST-1368DR,7530,10546,15328,0.074,551
2019-10-24T02:29:37,42.805,6.029,CST-1368DR,7530,10545,15327,0.075,551
2019-10-24T02:32:39,42.805,6.029,CST-1368DR,7530,10545,15327,0.075,551
2019-10-24T02:35:40,42.805,6.029,CST-1368DR,7530,10546,15328,0.074,551
2019-10-24T02:38:42,42.805,6.029,CST-1368DR,7530,10545,15326,0.075,551
2019-10-24T02:41:44,42.805,6.029,CST-1368DR,7530,10544,15326,0.075,550
2019-10-24T02:44:45,42.805,6.029,CST-1368DR,7530,10546,15328,0.074,551
2019-10-24T02:47:47,42.805,6.029,CST-1368DR,7530,10546,15328,0.074,551
2019-10-24T02:50:49,42.805,6.029,CST-1368DR,7530,10545,15327,0.075,551
2019-10-24T02:53:50,42.805,6.029,CST-1368DR,7530,10546,15328,0.074,551
2019-10-24T02:56:52,42.805,6.029,CST-1368DR,7530,10545,15327,0.075,551
2019-10-24T02:59:53,42.805,6.029,CST-1368DR,7530,10547,15329,0.074,551
2019-10-24T03:02:55,42.805,6.029,CST-1368DR,7530,10546,15328,0.074,551
2019-10-24T03:05:57,42.805,6.029,CST-1368DR,7530,10544,15326,0.075,551
2019-10-24T03:08:58,42.805,6.029,CST-1368DR,7530,10546,15328,0.074,551
2019-10-24T03:12:00,42.805,6.029,CST-1368DR,7530,10546,15328,0.074,551
2019-10-24T03:15:02,42.805,6.029,CST-1368DR,7529,10545,15329,0.074,551
2019-10-24T03:18:03,42.805,6.029,CST-1368DR,7529,10545,15329,0.074,551
2019-10-24T03:21:05,42.805,6.029,CST-1368DR,7530,10546,15328,0.074,551
2019-10-24T03:24:07,42.805,6.029,CST-1368DR,7530,10546,15328,0.074,551
2019-10-24T03:27:08,42.805,6.029,CST-1368DR,7529,10545,15329,0.074,551
2019-10-24T03:30:10,42.805,6.029,CST-1368DR,7529,10545,15329,0.074,551
2019-10-24T03:33:12,42.805,6.029,CST-1368DR,7529,10548,15333,0.073,551
2019-10-24T03:36:13,42.805,6.029,CST-1368DR,7529,10547,15331,0.074,551
2019-10-24T03:39:15,42.805,6.029,CST-1368DR,7529,10547,15331,0.074,551
2019-10-24T03:42:16,42.805,6.029,CST-1368DR,7529,10547,15331,0.074,551
2019-10-24T03:45:18,42.805,6.029,CST-1368DR,7529,10546,15330,0.074,550
2019-10-24T03:48:20,42.805,6.029,CST-1368DR,7529,10547,15331,0.074,551
2019-10-24T03:51:21,42.805,6.029,CST-1368DR,7529,10546,15330,0.074,551
2019-10-24T03:54:23,42.805,6.029,CST-1368DR,7529,10545,15329,0.074,551
2019-10-24T03:57:25,42.805,6.029,CST-1368DR,7529,10544,15328,0.074,551
2019-10-24T04:00:26,42.805,6.029,CST-1368DR,7529,10545,15329,0.074,551
2019-10-24T04:03:28,42.805,6.029,CST-1368DR,7529,10545,15329,0.074,551
2019-10-24T04:06:30,42.805,6.029,CST-1368DR,7529,10546,15330,0.074,551
2019-10-24T04:09:31,42.805,6.029,CST-1368DR,7529,10545,15329,0.074,551
2019-10-24T04:12:33,42.805,6.029,CST-1368DR,7529,10545,15329,0.074,551
2019-10-24T04:15:35,42.805,6.029,CST-1368DR,7529,10545,15329,0.074,551
2019-10-24T04:18:36,42.805,6.029,CST-1368DR,7529,10546,15330,0.074,551
2019-10-24T04:21:38,42.805,6.029,CST-1368DR,7529,10544,15327,0.075,551
2019-10-24T04:24:40,42.805,6.029,CST-1368DR,7529,10545,15329,0.074,551
2019-10-24T04:27:41,42.805,6.029,CST-1368DR,7529,10546,15330,0.074,551
2019-10-24T04:30:43,42.805,6.029,CST-1368DR,7529,10539,15320,0.077,550
2019-10-24T04:33:45,42.805,6.029,CST-1368DR,7529,10545,15329,0.074,551
2019-10-24T04:36:46,42.805,6.029,CST-1368DR,7529,10547,15331,0.074,551
2019-10-24T04:39:48,42.805,6.029,CST-1368DR,7529,10545,15329,0.074,551
2019-10-24T04:42:50,42.805,6.029,CST-1368DR,7529,10546,15330,0.074,551
2019-10-24T04:45:52,42.805,6.029,CST-1368DR,7529,10545,15329,0.074,551
2019-10-24T04:48:53,42.805,6.029,CST-1368DR,7529,10547,15331,0.074,551
2019-10-24T04:51:55,42.805,6.029,CST-1368DR,7529,10546,15330,0.074,551
2019-10-24T04:54:56,42.805,6.029,CST-1368DR,7529,10545,15329,0.074,551
2019-10-24T04:57:58,42.805,6.029,CST-1368DR,7529,10545,15329,0.074,551
2019-10-24T05:01:00,42.805,6.029,CST-1368DR,7529,10544,15327,0.075,551
2019-10-24T05:04:01,42.805,6.029,CST-1368DR,7529,10546,15330,0.074,551
2019-10-24T05:07:03,42.805,6.029,CST-1368DR,7529,10545,15329,0.074,551
2019-10-24T05:10:05,42.805,6.029,CST-1368DR,7529,10546,15330,0.074,551
2019-10-24T05:13:06,42.805,6.029,CST-1368DR,7529,10544,15327,0.075,551
2019-10-24T05:16:08,42.805,6.029,CST-1368DR,7529,10546,15330,0.074,551
2019-10-24T05:19:10,42.805,6.029,CST-1368DR,7529,10546,15330,0.074,551
2019-10-24T05:22:11,42.805,6.029,CST-1368DR,7529,10547,15332,0.073,551
2019-10-24T05:25:13,42.805,6.029,CST-1368DR,7529,10543,15326,0.075,551
2019-10-24T05:28:15,42.805,6.029,CST-1368DR,7529,10545,15329,0.074,551
2019-10-24T05:31:16,42.805,6.029,CST-1368DR,7529,10545,15329,0.074,551
2019-10-24T05:34:18,42.805,6.029,CST-1368DR,7529,10545,15329,0.074,551
2019-10-24T05:37:19,42.805,6.029,CST-1368DR,7529,10545,15328,0.074,551
2019-10-24T05:40:21,42.805,6.029,CST-1368DR,7529,10545,15329,0.074,551
2019-10-24T05:43:23,42.805,6.029,CST-1368DR,7529,10545,15329,0.074,551
2019-10-24T05:46:24,42.805,6.029,CST-1368DR,7529,10542,15324,0.076,551
2019-10-24T05:49:26,42.805,6.029,CST-1368DR,7529,10546,15330,0.074,551
2019-10-24T05:52:28,42.805,6.029,CST-1368DR,7529,10545,15329,0.074,551
2019-10-24T05:55:29,42.805,6.029,CST-1368DR,7529,10545,15329,0.074,551
2019-10-24T05:58:31,42.805,6.029,CST-1368DR,7529,10545,15329,0.074,551
2019-10-24T06:01:33,42.805,6.029,CST-1368DR,7529,10545,15328,0.074,551
2019-10-24T06:04:34,42.805,6.029,CST-1368DR,7529,10545,15329,0.074,551
2019-10-24T06:07:36,42.805,6.029,CST-1368DR,7529,10544,15327,0.075,551
2019-10-24T06:10:38,42.805,6.029,CST-1368DR,7529,10542,15325,0.075,551
2019-10-24T06:13:39,42.805,6.029,CST-1368DR,7529,10545,15328,0.074,550
2019-10-24T06:16:41,42.805,6.029,CST-1368DR,7529,10545,15329,0.074,551
2019-10-24T06:19:42,42.805,6.029,CST-1368DR,7529,10544,15327,0.075,551
2019-10-24T06:22:44,42.805,6.029,CST-1368DR,7529,10544,15327,0.075,551
2019-10-24T06:25:46,42.805,6.029,CST-1368DR,7528,10544,15329,0.074,551
2019-10-24T06:28:47,42.805,6.029,CST-1368DR,7529,10544,15327,0.075,551
2019-10-24T06:31:49,42.805,6.029,CST-1368DR,7528,10544,15329,0.074,551
2019-10-24T06:34:51,42.805,6.029,CST-1368DR,7528,10544,15330,0.074,551
2019-10-24T06:37:52,42.805,6.029,CST-1368DR,7528,10544,15329,0.074,551
2019-10-24T06:40:54,42.805,6.029,CST-1368DR,7528,10544,15329,0.074,551
2019-10-24T06:43:56,42.805,6.029,CST-1368DR,7528,10544,15329,0.074,551
2019-10-24T06:46:57,42.805,6.029,CST-1368DR,7528,10544,15330,0.074,551
2019-10-24T06:49:59,42.805,6.029,CST-1368DR,7528,10544,15329,0.074,551
2019-10-24T06:53:01,42.805,6.029,CST-1368DR,7528,10544,15329,0.074,551
2019-10-24T06:56:02,42.805,6.029,CST-1368DR,7528,10544,15329,0.074,551
2019-10-24T06:59:04,42.805,6.029,CST-1368DR,7528,10545,15330,0.074,551
2019-10-24T07:02:06,42.805,6.029,CST-1368DR,7528,10546,15332,0.073,551
2019-10-24T07:05:07,42.805,6.029,CST-1368DR,7528,10544,15329,0.074,551
2019-10-24T07:08:09,42.805,6.029,CST-1368DR,7528,10545,15330,0.074,551
2019-10-24T07:11:10,42.805,6.029,CST-1368DR,7528,10544,15329,0.074,551
2019-10-24T07:14:12,42.805,6.029,CST-1368DR,7528,10542,15326,0.075,551
2019-10-24T07:17:14,42.805,6.029,CST-1368DR,7528,10544,15329,0.074,550
2019-10-24T07:20:15,42.805,6.029,CST-1368DR,7528,10542,15326,0.075,551
2019-10-24T07:23:17,42.805,6.029,CST-1368DR,7528,10541,15325,0.075,551
2019-10-24T07:26:19,42.805,6.029,CST-1368DR,7528,10544,15329,0.074,551
2019-10-24T07:29:20,42.805,6.029,CST-1368DR,7528,10545,15330,0.074,551
2019-10-24T07:32:22,42.805,6.029,CST-1368DR,7528,10543,15327,0.075,551
2019-10-24T07:35:24,42.805,6.029,CST-1368DR,7528,10542,15326,0.075,550
2019-10-24T07:38:25,42.805,6.029,CST-1368DR,7528,10542,15326,0.075,551
2019-10-24T07:41:27,42.805,6.029,CST-1368DR,7528,10543,15328,0.074,551
2019-10-24T07:44:29,42.805,6.029,CST-1368DR,7528,10542,15327,0.075,551
2019-10-24T07:47:30,42.805,6.029,CST-1368DR,7528,10542,15326,0.075,551
2019-10-24T07:50:32,42.805,6.029,CST-1368DR,7528,10538,15321,0.076,551
2019-10-24T07:53:34,42.805,6.029,CST-1368DR,7528,10541,15325,0.075,551
2019-10-24T07:56:35,42.805,6.029,CST-1368DR,7528,10543,15328,0.074,551
2019-10-24T07:59:37,42.805,6.029,CST-1368DR,7528,10538,15320,0.077,551
2019-10-24T08:02:39,42.805,6.029,CST-1368DR,7528,10544,15329,0.074,551
2019-10-24T08:05:40,42.805,6.029,CST-1368DR,7528,10544,15329,0.074,551
2019-10-24T08:08:42,42.805,6.029,CST-1368DR,7528,10543,15328,0.074,551
2019-10-24T08:11:44,42.805,6.029,CST-1368DR,7528,10543,15328,0.074,551
2019-10-24T08:14:45,42.805,6.029,CST-1368DR,7528,10544,15329,0.074,551
2019-10-24T08:17:47,42.805,6.029,CST-1368DR,7528,10544,15329,0.074,551
2019-10-24T08:20:48,42.805,6.029,CST-1368DR,7528,10544,15330,0.074,551
2019-10-24T08:23:50,42.805,6.029,CST-1368DR,7528,10541,15325,0.075,551
2019-10-24T08:26:52,42.805,6.029,CST-1368DR,7528,10542,15327,0.075,551
2019-10-24T08:29:53,42.805,6.029,CST-1368DR,7528,10543,15328,0.074,551
2019-10-24T08:32:55,42.805,6.029,CST-1368DR,7528,10542,15327,0.075,551
2019-10-24T08:35:57,42.805,6.029,CST-1368DR,7528,10543,15328,0.074,550
2019-10-24T08:38:58,42.805,6.029,CST-1368DR,7528,10543,15328,0.074,551
2019-10-24T08:42:00,42.805,6.029,CST-1368DR,7528,10544,15329,0.074,551
2019-10-24T08:45:02,42.805,6.029,CST-1368DR,7528,10542,15326,0.075,550
2019-10-24T08:48:03,42.805,6.029,CST-1368DR,7528,10540,15324,0.076,551
2019-10-24T08:51:05,42.805,6.029,CST-1368DR,7528,10538,15321,0.076,551
2019-10-24T08:54:07,42.805,6.029,CST-1368DR,7528,10543,15328,0.074,551
2019-10-24T08:57:08,42.805,6.029,CST-1368DR,7528,10543,15328,0.074,551
2019-10-24T09:00:10,42.805,6.029,CST-1368DR,7527,10537,15321,0.076,551
2019-10-24T09:03:12,42.805,6.029,CST-1368DR,7527,10534,15317,0.077,551
2019-10-24T09:06:13,42.805,6.029,CST-1368DR,7527,10543,15330,0.074,551
2019-10-24T09:09:15,42.805,6.029,CST-1368DR,7528,10543,15327,0.075,551
2019-10-24T09:12:16,42.805,6.029,CST-1368DR,7527,10541,15327,0.075,550
2019-10-24T09:15:18,42.805,6.029,CST-1368DR,7527,10543,15330,0.074,551
2019-10-24T09:18:20,42.805,6.029,CST-1368DR,7527,10542,15329,0.074,551
2019-10-24T09:21:21,42.805,6.029,CST-1368DR,7528,10542,15327,0.075,551
2019-10-24T09:24:23,42.805,6.029,CST-1368DR,7528,10542,15327,0.075,550
2019-10-24T09:27:25,42.805,6.029,CST-1368DR,7528,10543,15328,0.074,551
2019-10-24T09:30:26,42.805,6.029,CST-1368DR,7527,10544,15332,0.073,551
2019-10-24T09:33:28,42.805,6.029,CST-1368DR,7528,10544,15329,0.074,551
2019-10-24T09:36:30,42.805,6.029,CST-1368DR,7527,10542,15328,0.074,551
2019-10-24T09:39:31,42.805,6.029,CST-1368DR,7527,10544,15331,0.074,551
2019-10-24T09:42:33,42.805,6.029,CST-1368DR,7527,10542,15328,0.074,551
2019-10-24T09:45:34,42.805,6.029,CST-1368DR,7527,10544,15331,0.074,551
2019-10-24T09:48:36,42.805,6.029,CST-1368DR,7527,10543,15330,0.074,551
2019-10-24T09:51:38,42.805,6.029,CST-1368DR,7527,10542,15329,0.074,551
2019-10-24T09:54:39,42.805,6.029,CST-1368DR,7527,10542,15328,0.074,551
2019-10-24T09:57:41,42.805,6.029,CST-1368DR,7527,10544,15331,0.074,550
2019-10-24T10:00:43,42.805,6.029,CST-1368DR,7527,10542,15329,0.074,551
2019-10-24T10:03:44,42.805,6.029,CST-1368DR,7527,10544,15331,0.074,551
2019-10-24T10:06:46,42.805,6.029,CST-1368DR,7527,10542,15328,0.074,551
2019-10-24T10:09:48,42.805,6.029,CST-1368DR,7527,10543,15329,0.074,551
2019-10-24T10:12:50,42.805,6.029,CST-1368DR,7527,10542,15328,0.074,551
2019-10-24T10:15:51,42.805,6.029,CST-1368DR,7527,10543,15330,0.074,551
2019-10-24T10:18:53,42.805,6.029,CST-1368DR,7527,10542,15328,0.074,551
2019-10-24T10:21:55,42.805,6.029,CST-1368DR,7527,10542,15328,0.074,551
2019-10-24T10:24:56,42.805,6.029,CST-1368DR,7527,10542,15328,0.074,551
2019-10-24T10:27:58,42.805,6.029,CST-1368DR,7527,10542,15328,0.074,551
2019-10-24T10:31:00,42.805,6.029,CST-1368DR,7527,10542,15328,0.074,551
2019-10-24T10:34:01,42.805,6.029,CST-1368DR,7527,10542,15328,0.074,551
2019-10-24T10:37:03,42.805,6.029,CST-1368DR,7527,10543,15330,0.074,551
2019-10-24T10:40:05,42.805,6.029,CST-1368DR,7527,10543,15330,0.074,551
2019-10-24T10:43:06,42.805,6.029,CST-1368DR,7527,10541,15327,0.075,551
2019-10-24T10:46:08,42.805,6.029,CST-1368DR,7527,10541,15326,0.075,551
2019-10-24T10:49:09,42.805,6.029,CST-1368DR,7527,10543,15329,0.074,551
2019-10-24T10:52:11,42.805,6.029,CST-1368DR,7527,10541,15327,0.075,551
2019-10-24T10:55:13,42.805,6.029,CST-1368DR,7527,10543,15329,0.074,551
2019-10-24T10:58:15,42.805,6.029,CST-1368DR,7527,10540,15326,0.075,551
2019-10-24T11:01:16,42.805,6.029,CST-1368DR,7527,10540,15326,0.075,551
2019-10-24T11:04:18,42.805,6.029,CST-1368DR,7527,10542,15328,0.074,551
2019-10-24T11:07:20,42.805,6.029,CST-1368DR,7527,10542,15328,0.074,551
2019-10-24T11:10:21,42.805,6.029,CST-1368DR,7527,10542,15328,0.074,551
2019-10-24T11:13:23,42.805,6.029,CST-1368DR,7527,10543,15330,0.074,551
2019-10-24T11:16:25,42.805,6.029,CST-1368DR,7527,10542,15328,0.074,551
2019-10-24T11:19:26,42.805,6.029,CST-1368DR,7527,10542,15329,0.074,551
2019-10-24T11:22:28,42.805,6.029,CST-1368DR,7527,10543,15330,0.074,551
2019-10-24T11:25:30,42.805,6.029,CST-1368DR,7527,10542,15329,0.074,551
2019-10-24T11:28:31,42.805,6.029,CST-1368DR,7527,10543,15329,0.074,551
2019-10-24T11:31:33,42.805,6.029,CST-1368DR,7527,10541,15327,0.075,551
2019-10-24T11:34:34,42.805,6.029,CST-1368DR,7527,10542,15329,0.074,551
2019-10-24T11:37:36,42.805,6.029,CST-1368DR,7527,10543,15330,0.074,551
2019-10-24T11:40:38,42.805,6.029,CST-1368DR,7527,10538,15322,0.076,551
2019-10-24T11:43:39,42.805,6.029,CST-1368DR,7527,10542,15328,0.074,551
2019-10-24T11:46:41,42.805,6.029,CST-1368DR,7527,10543,15330,0.074,551
2019-10-24T11:49:43,42.805,6.029,CST-1368DR,7527,10542,15328,0.074,551
2019-10-24T11:52:44,42.805,6.029,CST-1368DR,7527,10542,15328,0.074,551
2019-10-24T11:55:46,42.805,6.029,CST-1368DR,7527,10542,15329,0.074,551
2019-10-24T11:58:48,42.805,6.029,CST-1368DR,7527,10544,15332,0.073,551
2019-10-24T12:01:49,42.805,6.029,CST-1368DR,7527,10542,15329,0.074,551
2019-10-24T12:04:51,42.805,6.029,CST-1368DR,7527,10542,15328,0.074,551
2019-10-24T12:07:52,42.805,6.029,CST-1368DR,7527,10542,15329,0.074,551
2019-10-24T12:10:54,42.805,6.029,CST-1368DR,7527,10544,15331,0.074,551
2019-10-24T12:13:56,42.805,6.029,CST-1368DR,7527,10543,15330,0.074,551
2019-10-24T12:16:57,42.805,6.029,CST-1368DR,7527,10542,15328,0.074,551
2019-10-24T12:19:59,42.805,6.029,CST-1368DR,7527,10543,15330,0.074,551
2019-10-24T12:23:01,42.805,6.029,CST-1368DR,7527,10543,15330,0.074,551
2019-10-24T12:26:02,42.805,6.029,CST-1368DR,7527,10544,15332,0.073,551
2019-10-24T12:29:04,42.805,6.029,CST-1368DR,7527,10540,15326,0.075,551
2019-10-24T12:32:06,42.805,6.029,CST-1368DR,7527,10543,15329,0.074,551
2019-10-24T12:35:07,42.805,6.029,CST-1368DR,7526,10543,15332,0.073,551
2019-10-24T12:38:09,42.805,6.029,CST-1368DR,7527,10543,15330,0.074,551
2019-10-24T12:41:11,42.805,6.029,CST-1368DR,7527,10542,15328,0.074,551
2019-10-24T12:44:12,42.805,6.029,CST-1368DR,7526,10541,15329,0.074,551
2019-10-24T12:47:14,42.805,6.029,CST-1368DR,7526,10542,15330,0.074,551
2019-10-24T12:50:16,42.805,6.029,CST-1368DR,7527,10543,15329,0.074,551
2019-10-24T12:53:17,42.805,6.029,CST-1368DR,7527,10543,15329,0.074,551
2019-10-24T12:56:19,42.805,6.029,CST-1368DR,7526,10541,15328,0.074,551
2019-10-24T12:59:20,42.805,6.029,CST-1368DR,7526,10543,15331,0.074,551
2019-10-24T13:02:22,42.805,6.029,CST-1368DR,7526,10542,15331,0.074,551
2019-10-24T13:05:24,42.805,6.029,CST-1368DR,7526,10542,15330,0.074,551
2019-10-24T13:08:25,42.805,6.029,CST-1368DR,7526,10543,15332,0.073,551
2019-10-24T13:11:27,42.805,6.029,CST-1368DR,7526,10542,15331,0.074,551
2019-10-24T13:14:29,42.805,6.029,CST-1368DR,7526,10541,15329,0.074,551
2019-10-24T13:17:31,42.805,6.029,CST-1368DR,7526,10542,15330,0.074,551
2019-10-24T13:20:32,42.805,6.029,CST-1368DR,7526,10543,15331,0.074,551
2019-10-24T13:23:34,42.805,6.029,CST-1368DR,7526,10543,15331,0.074,550
2019-10-24T13:26:35,42.805,6.029,CST-1368DR,7526,10542,15330,0.074,551
2019-10-24T13:29:37,42.805,6.029,CST-1368DR,7526,10542,15330,0.074,551
2019-10-24T13:32:39,42.805,6.029,CST-1368DR,7526,10542,15330,0.074,551
2019-10-24T13:35:41,42.805,6.029,CST-1368DR,7526,10542,15331,0.074,551
2019-10-24T13:38:42,42.805,6.029,CST-1368DR,7526,10543,15331,0.074,550
2019-10-24T13:41:44,42.805,6.029,CST-1368DR,7526,10542,15330,0.074,551
2019-10-24T13:44:46,42.805,6.029,CST-1368DR,7526,10541,15328,0.074,551
2019-10-24T13:47:47,42.805,6.029,CST-1368DR,7526,10540,15327,0.075,551
2019-10-24T13:50:49,42.805,6.029,CST-1368DR,7526,10543,15331,0.074,551
2019-10-24T13:53:51,42.805,6.029,CST-1368DR,7526,10542,15329,0.074,551
2019-10-24T13:56:52,42.805,6.029,CST-1368DR,7526,10541,15329,0.074,551
2019-10-24T13:59:54,42.805,6.029,CST-1368DR,7526,10542,15330,0.074,551
2019-10-24T14:02:56,42.805,6.029,CST-1368DR,7526,10541,15329,0.074,551
2019-10-24T14:05:58,42.805,6.029,CST-1368DR,7526,10542,15330,0.074,551
2019-10-24T14:08:59,42.805,6.029,CST-1368DR,7526,10542,15329,0.074,551
2019-10-24T14:12:01,42.805,6.029,CST-1368DR,7526,10542,15330,0.074,551
2019-10-24T14:15:03,42.805,6.029,CST-1368DR,7526,10542,15331,0.074,551
2019-10-24T14:18:04,42.805,6.029,CST-1368DR,7526,10542,15331,0.074,551
2019-10-24T14:21:06,42.805,6.029,CST-1368DR,7526,10542,15329,0.074,551
2019-10-24T14:24:08,42.805,6.029,CST-1368DR,7526,10539,15325,0.075,551
2019-10-24T14:27:09,42.805,6.029,CST-1368DR,7526,10539,15326,0.075,551
2019-10-24T14:30:11,42.805,6.029,CST-1368DR,7526,10540,15327,0.075,551
2019-10-24T14:33:12,42.805,6.029,CST-1368DR,7526,10540,15328,0.074,551
2019-10-24T14:36:14,42.805,6.029,CST-1368DR,7526,10540,15328,0.074,550
2019-10-24T14:39:16,42.805,6.029,CST-1368DR,7526,10541,15328,0.074,551
2019-10-24T14:42:18,42.805,6.029,CST-1368DR,7526,10539,15325,0.075,551
2019-10-24T14:45:19,42.805,6.029,CST-1368DR,7526,10541,15329,0.074,551
2019-10-24T14:48:21,42.805,6.029,CST-1368DR,7526,10542,15330,0.074,551
2019-10-24T14:51:23,42.805,6.029,CST-1368DR,7526,10542,15329,0.074,551
2019-10-24T14:54:24,42.805,6.029,CST-1368DR,7526,10542,15329,0.074,551
2019-10-24T14:57:26,42.805,6.029,CST-1368DR,7526,10541,15329,0.074,551
2019-10-24T15:00:28,42.805,6.029,CST-1368DR,7526,10541,15329,0.074,551
2019-10-24T15:03:29,42.805,6.029,CST-1368DR,7526,10540,15327,0.075,551
2019-10-24T15:06:31,42.805,6.029,CST-1368DR,7526,10542,15330,0.074,551
2019-10-24T15:09:33,42.805,6.029,CST-1368DR,7526,10542,15329,0.074,551
2019-10-24T15:12:34,42.805,6.029,CST-1368DR,7526,10541,15328,0.074,551
2019-10-24T15:15:36,42.805,6.029,CST-1368DR,7526,10541,15328,0.074,551
2019-10-24T15:18:38,42.805,6.029,CST-1368DR,7526,10538,15324,0.076,551
2019-10-24T15:21:39,42.805,6.029,CST-1368DR,7526,10539,15326,0.075,551
2019-10-24T15:24:41,42.805,6.029,CST-1368DR,7526,10540,15327,0.075,551
2019-10-24T15:27:43,42.805,6.029,CST-1368DR,7526,10539,15326,0.075,551
2019-10-24T15:30:44,42.805,6.029,CST-1368DR,7526,10539,15326,0.075,551
2019-10-24T15:33:46,42.805,6.029,CST-1368DR,7526,10538,15324,0.076,551
2019-10-24T15:36:48,42.805,6.029,CST-1368DR,7526,10539,15326,0.075,551
2019-10-24T15:39:49,42.805,6.029,CST-1368DR,7526,10539,15326,0.075,551
2019-10-24T15:42:51,42.805,6.029,CST-1368DR,7526,10539,15325,0.075,551
2019-10-24T15:45:53,42.805,6.029,CST-1368DR,7525,10540,15329,0.074,551
2019-10-24T15:48:54,42.805,6.029,CST-1368DR,7525,10533,15319,0.077,551
2019-10-24T15:51:56,42.805,6.029,CST-1368DR,7525,10539,15328,0.074,551
2019-10-24T15:54:58,42.805,6.029,CST-1368DR,7525,10538,15326,0.075,551
2019-10-24T15:57:59,42.805,6.029,CST-1368DR,7525,10541,15330,0.074,551
2019-10-24T16:01:01,42.805,6.029,CST-1368DR,7525,10540,15329,0.074,551
2019-10-24T16:04:03,42.805,6.029,CST-1368DR,7525,10535,15322,0.076,551
2019-10-24T16:07:04,42.805,6.029,CST-1368DR,7525,10540,15329,0.074,551
2019-10-24T16:10:06,42.805,6.029,CST-1368DR,7525,10539,15328,0.074,551
2019-10-24T16:13:08,42.805,6.029,CST-1368DR,7525,10539,15328,0.074,551
2019-10-24T16:16:09,42.805,6.029,CST-1368DR,7525,10539,15328,0.074,551
2019-10-24T16:19:11,42.805,6.029,CST-1368DR,7525,10540,15329,0.074,551
2019-10-24T16:22:12,42.805,6.029,CST-1368DR,7525,10539,15328,0.074,551
2019-10-24T16:25:14,42.805,6.029,CST-1368DR,7525,10539,15327,0.075,551
2019-10-24T16:28:16,42.805,6.029,CST-1368DR,7525,10539,15327,0.075,551
2019-10-24T16:31:17,42.805,6.029,CST-1368DR,7525,10539,15328,0.074,550
2019-10-24T16:34:19,42.805,6.029,CST-1368DR,7525,10540,15329,0.074,551
2019-10-24T16:37:21,42.805,6.029,CST-1368DR,7525,10537,15325,0.075,551